Location: Mohawk View
(42.7837°N, 73.7885°W)
Time: 08:46:11
(UTC+00:00)

Cosmos 2237 Rocket - Pass Details

Date: 17 June 2021
Orbit: 835 x 850 km, 71.0° (Epoch: 27 July)

Event Time Altitude Azimuth Distance (km) Brightness Sun altitude
Exits shadow 02:47:21 13° 97° (E) 2,228 4.0 -17.5°
Maximum altitude 02:47:24 13° 97° (E) 2,228 4.0 -17.5°
Drops below altitude 10° 02:49:53 10° 70° (ENE) 2,449 4.5 -17.7°
Sets 02:53:42 0° 44° (NE) 3,390 5.6 -18.1°
